Simultaneous Nadir Overpasses (SNOs) Predictions

Prediction of SNOs between NOAA-21 and FY3D Satellite Orbit:

Table of predicted SNOs for the next 14.0 days since TLE Epoch: 10/18/2025
Index Date (NOAA-21) Time (NOAA-21) Lat,Lon (NOAA-21) SZA (NOAA-21 ) Date (FY3D) Time (FY3D) Lat,Lon (FY3D) SZA (FY3D ) Distance(km) Time Diff (sec)
1 10/21/2025 07:40:16 81.01, 11.26 94.92 10/21/2025 07:41:20 80.96, 15.69 94.35 77.40 64
2 10/21/2025 09:21:42 80.95, -12.73 94.75 10/21/2025 09:22:53 80.93, -11.02 94.50 29.96 71
3 10/21/2025 11:03:09 80.90, -37.09 94.62 10/21/2025 11:04:24 80.91, -36.98 94.58 2.26 75
4 10/21/2025 11:54:01 -81.02, 127.41 84.96 10/21/2025 11:55:03 -80.97, 132.75 85.63 92.97 62
5 10/21/2025 12:44:39 80.90, -62.54 94.66 10/21/2025 12:45:54 80.90, -62.58 94.63 0.63 75
6 10/21/2025 13:35:28 -80.98, 103.06 85.08 10/21/2025 13:36:37 -80.93, 105.66 85.45 45.87 69
7 10/21/2025 14:26:09 80.91, -87.99 94.69 10/21/2025 14:27:24 80.90, -88.17 94.67 3.28 75
8 10/21/2025 15:16:54 -80.92, 79.06 85.26 10/21/2025 15:18:09 -80.90, 79.33 85.34 5.15 75
9 10/21/2025 16:07:39 80.91,-113.44 94.73 10/21/2025 16:08:53 80.90,-113.39 94.68 1.31 74
10 10/21/2025 16:58:23 -80.91, 53.97 85.28 10/21/2025 16:59:38 -80.91, 54.11 85.33 2.51 75
11 10/21/2025 17:49:08 80.90,-138.53 94.71 10/21/2025 17:50:22 80.91,-138.61 94.69 1.77 74
12 10/21/2025 18:39:53 -80.91, 28.52 85.24 10/21/2025 18:41:08 -80.90, 28.52 85.28 0.94 75
13 10/21/2025 19:30:38 80.90,-163.98 94.75 10/21/2025 19:31:51 80.91,-163.83 94.70 2.83 73
14 10/21/2025 20:21:22 -80.90, 3.43 85.26 10/21/2025 20:22:37 -80.90, 3.30 85.27 2.53 75
15 10/21/2025 21:12:08 80.90, 170.57 94.78 10/21/2025 21:13:21 80.90, 170.57 94.75 0.10 73
16 10/21/2025 22:02:52 -80.90, -22.02 85.22 10/21/2025 22:04:06 -80.91, -21.92 85.26 2.05 74
17 10/21/2025 22:53:38 80.91, 145.12 94.82 10/21/2025 22:54:51 80.90, 144.98 94.79 2.66 73
18 10/21/2025 23:44:22 -80.90, -47.47 85.19 10/21/2025 23:45:36 -80.90, -47.51 85.22 0.80 74
19 10/22/2025 00:35:08 80.91, 119.67 94.86 10/22/2025 00:36:20 80.90, 119.76 94.80 1.94 72
20 10/22/2025 01:25:52 -80.91, -72.92 85.15 10/22/2025 01:27:05 -80.91, -72.74 85.21 3.19 73
21 10/22/2025 02:16:36 80.90, 94.58 94.84 10/22/2025 02:17:48 80.91, 94.54 94.81 1.18 72
22 10/22/2025 03:07:21 -80.91, -98.37 85.12 10/22/2025 03:08:34 -80.90, -98.33 85.16 1.25 73
23 10/22/2025 03:58:06 80.90, 69.13 94.87 10/22/2025 03:59:18 80.90, 68.94 94.86 3.21 72
24 10/22/2025 04:48:50 -80.90,-123.46 85.13 10/22/2025 04:50:03 -80.90,-123.55 85.15 1.89 73
25 10/22/2025 05:39:36 80.90, 43.67 94.91 10/22/2025 05:40:47 80.90, 43.72 94.87 0.82 71
26 10/22/2025 06:30:20 -80.90,-148.91 85.10 10/22/2025 06:31:32 -80.91,-148.77 85.14 2.60 72
27 10/22/2025 07:21:06 80.91, 18.22 94.94 10/22/2025 07:22:17 80.90, 18.13 94.91 2.12 71
28 10/22/2025 08:11:50 -80.90,-174.36 85.06 10/22/2025 08:13:02 -80.90,-174.36 85.10 0.14 72
29 10/22/2025 09:02:36 80.91, -7.23 94.98 10/22/2025 09:03:46 80.90, -7.09 94.92 2.62 70
30 10/22/2025 09:53:20 -80.91, 160.19 85.03 10/22/2025 09:54:32 -80.90, 160.05 85.05 2.87 72
31 10/22/2025 10:44:05 80.90, -32.32 94.96 10/22/2025 10:45:15 80.91, -32.32 94.93 0.81 70
32 10/22/2025 11:34:50 -80.91, 134.74 84.99 10/22/2025 11:36:01 -80.90, 134.82 85.04 1.78 71
33 10/22/2025 12:25:35 80.90, -57.77 95.00 10/22/2025 12:26:45 80.90, -57.91 94.98 2.51 70
34 10/22/2025 13:16:19 -80.90, 109.65 85.01 10/22/2025 13:17:30 -80.90, 109.60 85.03 1.28 71
35 10/22/2025 14:07:05 80.91, -83.22 95.03 10/22/2025 14:08:14 80.90, -83.13 94.99 1.55 69
36 10/22/2025 14:57:49 -80.90, 84.20 84.97 10/22/2025 14:58:59 -80.91, 84.38 85.02 3.20 70
37 10/22/2025 15:48:35 80.91,-108.67 95.07 10/22/2025 15:49:44 80.90,-108.73 95.03 1.72 69
38 10/22/2025 16:39:19 -80.90, 58.75 84.94 10/22/2025 16:40:29 -80.90, 58.79 84.98 0.59 70
39 10/22/2025 17:30:05 80.91,-134.12 95.11 10/22/2025 17:31:13 80.90,-133.95 95.04 3.32 68
40 10/22/2025 18:20:49 -80.91, 33.30 84.90 10/22/2025 18:21:59 -80.90, 33.19 84.93 2.33 70
41 10/22/2025 19:11:34 80.90,-159.21 95.09 10/22/2025 19:12:42 80.91,-159.17 95.06 0.98 68
42 10/22/2025 20:02:19 -80.91, 7.85 84.87 10/22/2025 20:03:28 -80.90, 7.97 84.92 2.40 69
43 10/22/2025 20:53:04 80.90, 175.34 95.12 10/22/2025 20:54:12 80.90, 175.24 95.10 1.84 68
44 10/22/2025 21:43:48 -80.90, -17.24 84.89 10/22/2025 21:44:57 -80.90, -17.25 84.91 0.81 69
45 10/22/2025 22:34:34 80.91, 149.89 95.16 10/22/2025 22:35:41 80.90, 150.01 95.11 2.27 67
46 10/22/2025 23:25:18 -80.90, -42.69 84.85 10/22/2025 23:26:27 -80.90, -42.84 84.87 2.77 69
47 10/23/2025 00:16:04 80.91, 124.43 95.20 10/23/2025 00:17:11 80.90, 124.42 95.15 1.59 67
48 10/23/2025 01:06:48 -80.91, -68.14 84.81 10/23/2025 01:07:56 -80.90, -68.07 84.86 1.27 68
49 10/23/2025 01:57:33 80.90, 99.34 95.18 10/23/2025 01:58:40 80.90, 99.20 95.17 2.62 67
50 10/23/2025 02:48:18 -80.91, -93.59 84.78 10/23/2025 02:49:26 -80.90, -93.66 84.81 1.90 68
51 10/23/2025 03:39:03 80.90, 73.89 95.21 10/23/2025 03:40:09 80.91, 73.97 95.18 1.52 66
52 10/23/2025 04:29:48 -80.91,-119.04 84.74 10/23/2025 04:30:55 -80.90,-118.88 84.80 3.05 67
53 10/23/2025 05:20:33 80.90, 48.44 95.25 10/23/2025 05:21:39 80.90, 48.38 95.22 1.25 66
54 10/23/2025 06:11:17 -80.90,-144.13 84.76 10/23/2025 06:12:24 -80.90,-144.10 84.79 0.77 67
55 10/23/2025 07:02:03 80.91, 22.99 95.28 10/23/2025 07:03:08 80.90, 23.16 95.23 3.00 65
56 10/23/2025 07:52:47 -80.90,-169.58 84.73 10/23/2025 07:53:54 -80.90,-169.70 84.75 2.13 67
57 10/23/2025 08:43:32 80.89, -2.10 95.27 10/23/2025 08:44:37 80.91, -2.07 95.24 1.57 65
58 10/23/2025 09:34:17 -80.91, 164.97 84.69 10/23/2025 09:35:23 -80.90, 165.08 84.74 1.96 66
59 10/23/2025 10:25:02 80.90, -27.55 95.30 10/23/2025 10:26:07 80.90, -27.66 95.29 1.90 65
60 10/23/2025 11:15:46 -80.89, 139.88 84.71 10/23/2025 11:16:52 -80.91, 139.86 84.73 1.64 66
61 10/23/2025 12:06:32 80.90, -53.00 95.34 10/23/2025 12:07:36 80.91, -52.88 95.30 2.16 64
62 10/23/2025 12:57:16 -80.90, 114.43 84.67 10/23/2025 12:58:22 -80.90, 114.26 84.68 2.93 66
63 10/23/2025 13:48:02 80.91, -78.46 95.37 10/23/2025 13:49:06 80.90, -78.48 95.34 0.88 64
64 10/23/2025 14:38:46 -80.90, 88.98 84.64 10/23/2025 14:39:51 -80.90, 89.04 84.67 1.21 65
65 10/23/2025 15:29:31 80.89,-103.55 95.36 10/23/2025 15:30:35 80.90,-103.70 95.35 2.94 64
66 10/23/2025 16:20:16 -80.90, 63.53 84.60 10/23/2025 16:21:21 -80.90, 63.45 84.63 1.54 65
67 10/23/2025 17:11:01 80.90,-129.00 95.39 10/23/2025 17:12:04 80.91,-128.92 95.36 1.84 63
68 10/23/2025 18:01:46 -80.91, 38.08 84.57 10/23/2025 18:02:50 -80.90, 38.23 84.62 2.64 64
69 10/23/2025 18:52:31 80.90,-154.45 95.43 10/23/2025 18:53:34 80.90,-154.52 95.41 1.17 63
70 10/23/2025 19:43:15 -80.89, 12.99 84.58 10/23/2025 19:44:19 -80.91, 13.00 84.61 1.48 64
71 10/23/2025 20:34:01 80.90,-179.90 95.46 10/23/2025 20:35:03 80.91,-179.74 95.42 2.85 62
72 10/23/2025 21:24:45 -80.90, -12.46 84.55 10/23/2025 21:25:49 -80.90, -12.59 84.56 2.25 64
73 10/23/2025 22:15:31 80.91, 154.65 95.50 10/23/2025 22:16:33 80.90, 154.67 95.46 1.04 62
74 10/23/2025 23:06:15 -80.90, -37.91 84.51 10/23/2025 23:07:18 -80.90, -37.81 84.55 1.80 63
75 10/23/2025 23:57:00 80.89, 129.55 95.48 10/23/2025 23:58:02 80.90, 129.44 95.47 2.23 62
76 10/24/2025 00:47:45 -80.90, -63.36 84.48 10/24/2025 00:48:48 -80.90, -63.41 84.51 1.07 63
77 10/24/2025 01:38:30 80.90, 104.10 95.52 10/24/2025 01:39:31 80.91, 104.22 95.48 2.31 61
78 10/24/2025 02:29:14 -80.89, -88.46 84.50 10/24/2025 02:30:17 -80.90, -88.63 84.50 3.30 63
79 10/24/2025 03:20:00 80.90, 78.65 95.55 10/24/2025 03:21:01 80.90, 78.62 95.53 0.47 61
80 10/24/2025 04:10:44 -80.89,-113.91 84.46 10/24/2025 04:11:46 -80.91,-113.85 84.49 1.60 62
81 10/24/2025 05:01:29 80.90, 53.20 95.59 10/24/2025 05:02:30 80.89, 53.03 95.57 3.21 61
82 10/24/2025 05:52:13 -80.90,-139.36 84.42 10/24/2025 05:53:15 -80.90,-139.45 84.44 1.58 62
83 10/24/2025 06:42:59 80.91, 27.75 95.62 10/24/2025 06:43:59 80.90, 27.81 95.58 1.57 60
84 10/24/2025 07:33:43 -80.90,-164.81 84.39 10/24/2025 07:34:44 -80.90,-164.67 84.43 2.43 61
85 10/24/2025 08:24:28 80.90, 2.66 95.61 10/24/2025 08:25:28 80.90, 2.58 95.59 1.53 60
86 10/24/2025 09:15:13 -80.91, 169.74 84.35 10/24/2025 09:16:14 -80.90, 169.74 84.39 0.92 61
87 10/24/2025 10:05:58 80.90, -22.80 95.64 10/24/2025 10:06:57 80.91, -22.64 95.60 2.88 59
88 10/24/2025 10:56:42 -80.89, 144.65 84.37 10/24/2025 10:57:43 -80.90, 144.51 84.38 2.63 61
89 10/24/2025 11:47:28 80.90, -48.25 95.68 10/24/2025 11:48:27 80.90, -48.24 95.65 0.35 59
90 10/24/2025 12:38:12 -80.90, 119.20 84.34 10/24/2025 12:39:12 -80.91, 119.29 84.37 1.96 60
91 10/24/2025 13:28:58 80.91, -73.70 95.71 10/24/2025 13:29:57 80.89, -73.83 95.69 2.67 59
92 10/24/2025 14:19:42 -80.90, 93.75 84.30 10/24/2025 14:20:42 -80.90, 93.69 84.32 0.91 60
93 10/24/2025 15:10:28 80.91, -99.15 95.75 10/24/2025 15:11:26 80.90, -99.05 95.70 2.22 58
94 10/24/2025 16:01:12 -80.90, 68.30 84.27 10/24/2025 16:02:11 -80.90, 68.47 84.31 3.08 59
95 10/24/2025 16:51:57 80.90,-124.25 95.73 10/24/2025 16:52:55 80.90,-124.28 95.71 0.86 58
96 10/24/2025 17:42:42 -80.91, 42.84 84.23 10/24/2025 17:43:41 -80.90, 42.88 84.27 1.23 59
97 10/24/2025 18:33:27 80.90,-149.70 95.77 10/24/2025 18:34:25 80.90,-149.87 95.75 3.11 58
98 10/24/2025 19:24:11 -80.89, 17.75 84.25 10/24/2025 19:25:10 -80.90, 17.65 84.26 1.97 59
99 10/24/2025 20:14:57 80.90,-175.15 95.80 10/24/2025 20:15:54 80.90,-175.10 95.76 1.05 57
100 10/24/2025 21:05:41 -80.90, -7.70 84.21 10/24/2025 21:06:39 -80.91, -7.57 84.25 2.45 58
101 10/24/2025 21:56:26 80.89, 159.76 95.78 10/24/2025 21:57:23 80.90, 159.68 95.77 2.07 57
102 10/24/2025 22:47:11 -80.90, -33.15 84.18 10/24/2025 22:48:09 -80.90, -33.16 84.20 0.30 58
103 10/24/2025 23:37:57 80.91, 133.95 95.87 10/24/2025 23:38:53 80.90, 134.08 95.82 2.91 56
104 10/25/2025 00:28:41 -80.90, -58.60 84.14 10/25/2025 00:29:39 -80.89, -58.76 84.16 3.05 58
105 10/25/2025 01:19:26 80.90, 108.85 95.85 10/25/2025 01:20:22 80.90, 108.86 95.83 0.46 56
106 10/25/2025 02:10:11 -80.91, -84.05 84.11 10/25/2025 02:11:08 -80.90, -83.98 84.15 1.76 57
107 10/25/2025 03:00:56 80.90, 83.40 95.89 10/25/2025 03:01:52 80.90, 83.27 95.87 2.48 56
108 10/25/2025 03:51:40 -80.90,-109.14 84.12 10/25/2025 03:52:37 -80.90,-109.21 84.14 1.32 57
109 10/25/2025 04:42:26 80.91, 57.95 95.92 10/25/2025 04:43:21 80.90, 58.04 95.88 1.77 55
110 10/25/2025 05:33:10 -80.90,-134.60 84.09 10/25/2025 05:34:06 -80.91,-134.43 84.13 3.01 56
111 10/25/2025 06:23:55 80.89, 32.86 95.91 10/25/2025 06:24:50 80.90, 32.82 95.89 1.50 55
112 10/25/2025 07:14:40 -80.90,-160.05 84.05 10/25/2025 07:15:36 -80.90,-160.02 84.09 0.53 56
113 10/25/2025 08:05:25 80.90, 7.40 95.94 10/25/2025 08:06:20 80.90, 7.22 95.94 3.18 55
114 10/25/2025 08:56:09 -80.89, 174.86 84.07 10/25/2025 08:57:05 -80.90, 174.75 84.08 2.53 56
115 10/25/2025 09:46:55 80.90, -18.05 95.98 10/25/2025 09:47:49 80.90, -18.00 95.95 0.86 54
116 10/25/2025 10:37:40 -80.91, 149.05 83.98 10/25/2025 10:38:35 -80.90, 149.16 84.03 2.37 55
117 10/25/2025 11:28:25 80.90, -43.50 96.01 10/25/2025 11:29:19 80.89, -43.60 95.99 1.92 54
118 10/25/2025 12:19:09 -80.90, 123.96 84.00 10/25/2025 12:20:04 -80.90, 123.93 84.02 0.71 55
119 10/25/2025 13:09:55 80.91, -68.96 96.05 10/25/2025 13:10:48 80.90, -68.82 96.00 2.51 53
120 10/25/2025 14:00:39 -80.90, 98.51 83.97 10/25/2025 14:01:34 -80.89, 98.34 83.98 3.00 55
121 10/25/2025 14:51:24 80.89, -94.05 96.03 10/25/2025 14:52:17 80.90, -94.05 96.01 1.11 53
122 10/25/2025 15:42:09 -80.90, 73.05 83.93 10/25/2025 15:43:03 -80.90, 73.11 83.97 1.18 54
123 10/25/2025 16:32:54 80.90,-119.50 96.07 10/25/2025 16:33:47 80.90,-119.64 96.06 2.48 53
124 10/25/2025 17:23:38 -80.89, 47.96 83.95 10/25/2025 17:24:32 -80.90, 47.89 83.96 1.94 54
125 10/25/2025 18:14:24 80.90,-144.95 96.10 10/25/2025 18:15:16 80.90,-144.87 96.07 1.53 52
126 10/25/2025 19:05:09 -80.91, 22.15 83.86 10/25/2025 19:06:02 -80.90, 22.30 83.91 3.01 53
127 10/25/2025 19:55:54 80.91,-170.41 96.14 10/25/2025 19:56:46 80.89,-170.46 96.11 1.53 52
128 10/25/2025 20:46:38 -80.90, -2.94 83.88 10/25/2025 20:47:31 -80.90, -2.93 83.90 0.42 53
129 10/25/2025 21:37:24 80.91, 164.14 96.17 10/25/2025 21:38:15 80.90, 164.31 96.12 3.24 51
130 10/25/2025 22:28:08 -80.90, -28.39 83.84 10/25/2025 22:29:01 -80.89, -28.52 83.86 2.43 53
131 10/25/2025 23:18:53 80.90, 139.05 96.15 10/25/2025 23:19:44 80.90, 139.09 96.13 1.13 51
132 10/26/2025 00:09:38 -80.91, -53.85 83.81 10/26/2025 00:10:30 -80.90, -53.75 83.85 1.85 52
133 10/26/2025 01:00:23 80.90, 113.59 96.19 10/26/2025 01:01:14 80.90, 113.49 96.18 1.81 51
134 10/26/2025 01:51:07 -80.89, -78.94 83.83 10/26/2025 01:51:59 -80.90, -78.97 83.84 1.41 52
135 10/26/2025 02:41:53 80.90, 88.14 96.23 10/26/2025 02:42:43 80.90, 88.27 96.19 2.24 50
136 10/26/2025 03:32:37 -80.90,-104.39 83.79 10/26/2025 03:33:29 -80.90,-104.57 83.79 3.13 52
137 10/26/2025 04:23:23 80.91, 62.69 96.26 10/26/2025 04:24:13 80.89, 62.67 96.23 1.45 50
138 10/26/2025 05:14:07 -80.90,-129.84 83.76 10/26/2025 05:14:58 -80.90,-129.79 83.78 0.87 51
139 10/26/2025 06:04:52 80.89, 37.59 96.24 10/26/2025 06:05:42 80.90, 37.45 96.24 2.66 50
140 10/26/2025 06:55:37 -80.90,-155.29 83.72 10/26/2025 06:56:28 -80.89,-155.39 83.74 1.93 51
141 10/26/2025 07:46:22 80.90, 12.14 96.28 10/26/2025 07:47:11 80.90, 12.22 96.25 1.55 49
142 10/26/2025 08:37:06 -80.91, 179.25 83.69 10/26/2025 08:37:56 -80.90, 179.39 83.73 2.52 50
143 10/26/2025 09:27:51 80.90, -13.31 96.31 10/26/2025 09:28:40 80.90, -13.37 96.29 1.22 49
144 10/26/2025 10:18:35 -80.89, 154.16 83.70 10/26/2025 10:19:25 -80.90, 154.16 83.72 1.05 50
145 10/26/2025 11:09:21 80.90, -38.76 96.35 10/26/2025 11:10:09 80.90, -38.60 96.30 2.96 48
146 10/26/2025 12:00:05 -80.90, 128.71 83.67 10/26/2025 12:00:55 -80.90, 128.57 83.68 2.49 50
147 10/26/2025 12:50:50 80.89, -63.86 96.33 10/26/2025 12:51:38 80.90, -63.82 96.31 1.62 48
148 10/26/2025 13:41:35 -80.90, 103.26 83.63 10/26/2025 13:42:24 -80.90, 103.34 83.67 1.49 49
149 10/26/2025 14:32:20 80.90, -89.31 96.37 10/26/2025 14:33:08 80.90, -89.42 96.36 1.93 48
150 10/26/2025 15:23:05 -80.90, 77.80 83.60 10/26/2025 15:23:54 -80.89, 77.75 83.62 1.59 49
151 10/26/2025 16:13:50 80.90,-114.77 96.40 10/26/2025 16:14:37 80.90,-114.65 96.37 2.14 47
152 10/26/2025 17:04:35 -80.91, 52.35 83.56 10/26/2025 17:05:23 -80.90, 52.52 83.61 3.19 48
153 10/26/2025 17:55:20 80.90,-140.22 96.44 10/26/2025 17:56:07 80.90,-140.24 96.41 0.90 47
154 10/26/2025 18:46:04 -80.89, 27.26 83.58 10/26/2025 18:46:52 -80.90, 27.30 83.60 1.05 48
155 10/26/2025 19:36:49 80.89,-165.31 96.42 10/26/2025 19:37:36 80.90,-165.47 96.42 2.97 47
156 10/26/2025 20:27:34 -80.90, 1.81 83.55 10/26/2025 20:28:22 -80.90, 1.70 83.56 1.89 48
157 10/26/2025 21:18:19 80.89, 169.23 96.45 10/26/2025 21:19:05 80.90, 169.31 96.43 1.79 46
158 10/26/2025 22:09:04 -80.90, -23.65 83.51 10/26/2025 22:09:51 -80.90, -23.53 83.55 2.14 47
159 10/26/2025 22:59:49 80.90, 143.78 96.49 10/26/2025 23:00:35 80.90, 143.71 96.48 1.21 46
160 10/26/2025 23:50:34 -80.91, -49.10 83.48 10/26/2025 23:51:21 -80.89, -49.12 83.50 1.51 47
161 10/27/2025 00:41:19 80.90, 118.33 96.52 10/27/2025 00:42:04 80.90, 118.49 96.49 2.80 45
162 10/27/2025 01:32:03 -80.89, -74.19 83.49 10/27/2025 01:32:50 -80.90, -74.35 83.49 2.75 47
163 10/27/2025 02:22:49 80.90, 92.87 96.56 10/27/2025 02:23:34 80.90, 92.89 96.53 1.11 45
164 10/27/2025 03:13:33 -80.90, -99.64 83.46 10/27/2025 03:14:19 -80.90, -99.57 83.48 1.41 46
165 10/27/2025 04:04:18 80.89, 67.78 96.54 10/27/2025 04:05:03 80.90, 67.66 96.54 2.23 45
166 10/27/2025 04:55:03 -80.90,-125.10 83.42 10/27/2025 04:55:49 -80.90,-125.17 83.44 1.35 46
167 10/27/2025 05:45:48 80.90, 42.33 96.58 10/27/2025 05:46:32 80.90, 42.44 96.55 2.21 44
168 10/27/2025 06:36:33 -80.90,-150.55 83.39 10/27/2025 06:37:18 -80.90,-150.39 83.43 2.81 45
169 10/27/2025 07:27:18 80.90, 16.87 96.61 10/27/2025 07:28:02 80.90, 16.84 96.59 0.56 44
170 10/27/2025 08:18:02 -80.89,-175.64 83.41 10/27/2025 08:18:47 -80.90,-175.62 83.42 1.53 45
171 10/27/2025 09:08:48 80.90, -8.58 96.65 10/27/2025 09:09:32 80.89, -8.75 96.64 3.33 44
172 10/27/2025 09:59:32 -80.89, 158.90 83.37 10/27/2025 10:00:17 -80.90, 158.79 83.38 2.09 45
173 10/27/2025 10:50:18 80.91, -34.04 96.68 10/27/2025 10:51:01 80.89, -33.98 96.65 1.67 43
174 10/27/2025 11:41:02 -80.90, 133.45 83.34 10/27/2025 11:41:46 -80.90, 133.56 83.37 1.94 44
175 10/27/2025 12:31:47 80.89, -59.13 96.66 10/27/2025 12:32:30 80.90, -59.21 96.66 1.48 43
176 10/27/2025 13:22:32 -80.90, 108.00 83.30 10/27/2025 13:23:16 -80.89, 107.97 83.32 1.02 44
177 10/27/2025 14:13:17 80.90, -84.58 96.70 10/27/2025 14:13:59 80.90, -84.43 96.67 2.76 42
178 10/27/2025 15:04:01 -80.89, 82.90 83.32 10/27/2025 15:04:45 -80.90, 82.74 83.31 3.14 44
179 10/27/2025 15:54:47 80.90,-110.04 96.74 10/27/2025 15:55:29 80.90,-110.03 96.71 0.53 42
180 10/27/2025 16:45:31 -80.89, 57.45 83.28 10/27/2025 16:46:14 -80.90, 57.51 83.30 1.62 43
181 10/27/2025 17:36:16 80.89,-135.13 96.72 10/27/2025 17:36:58 80.90,-135.25 96.72 2.62 42
182 10/27/2025 18:27:01 -80.90, 32.00 83.25 10/27/2025 18:27:44 -80.90, 31.92 83.26 1.44 43
183 10/27/2025 19:17:47 80.91,-160.95 96.81 10/27/2025 19:18:28 80.89,-160.85 96.76 2.35 41
184 10/27/2025 20:08:31 -80.90, 6.55 83.21 10/27/2025 20:09:13 -80.90, 6.69 83.25 2.54 42
185 10/27/2025 20:59:16 80.90, 173.96 96.79 10/27/2025 20:59:57 80.90, 173.92 96.77 0.74 41
186 10/27/2025 21:50:01 -80.90, -18.91 83.18 10/27/2025 21:50:43 -80.89, -18.90 83.21 1.09 42
187 10/27/2025 22:40:46 80.90, 148.51 96.82 10/27/2025 22:41:27 80.89, 148.33 96.82 3.26 41
188 10/27/2025 23:31:30 -80.89, -44.00 83.20 10/27/2025 23:32:12 -80.90, -44.13 83.20 2.46 42
189 10/28/2025 00:22:16 80.90, 123.05 96.86 10/28/2025 00:22:56 80.90, 123.10 96.83 1.17 40
190 10/28/2025 01:13:00 -80.89, -69.45 83.16 10/28/2025 01:13:41 -80.90, -69.36 83.19 1.94 41
191 10/28/2025 02:03:45 80.89, 97.96 96.84 10/28/2025 02:04:25 80.90, 97.87 96.84 1.90 40
192 10/28/2025 02:54:30 -80.90, -94.91 83.13 10/28/2025 02:55:11 -80.90, -94.95 83.14 0.85 41
193 10/28/2025 03:45:15 80.89, 72.50 96.88 10/28/2025 03:45:54 80.90, 72.65 96.85 2.83 39
194 10/28/2025 04:36:00 -80.90,-120.36 83.09 10/28/2025 04:36:40 -80.90,-120.18 83.13 3.16 40
195 10/28/2025 05:26:45 80.90, 47.05 96.91 10/28/2025 05:27:24 80.90, 47.05 96.89 0.07 39
196 10/28/2025 06:17:30 -80.91,-145.81 83.06 10/28/2025 06:18:10 -80.89,-145.78 83.09 1.50 40
197 10/28/2025 07:08:15 80.90, 21.59 96.95 10/28/2025 07:08:54 80.89, 21.45 96.94 2.71 39
198 10/28/2025 07:58:59 -80.89,-170.91 83.08 10/28/2025 07:59:39 -80.90,-171.00 83.08 1.79 40
199 10/28/2025 08:49:45 80.90, -3.86 96.98 10/28/2025 08:50:23 80.90, -3.77 96.95 1.89 38
200 10/28/2025 09:40:29 -80.90, 163.64 83.04 10/28/2025 09:41:08 -80.90, 163.77 83.07 2.40 39
201 10/28/2025 10:31:14 80.89, -28.96 96.96 10/28/2025 10:31:52 80.90, -29.00 96.96 1.19 38
202 10/28/2025 11:21:58 -80.90, 138.19 83.01 10/28/2025 11:22:37 -80.90, 138.17 83.03 0.53 39
203 10/28/2025 12:12:43 80.90, -54.41 97.00 10/28/2025 12:13:21 80.89, -54.60 97.00 3.29 38
204 10/28/2025 13:03:27 -80.89, 113.09 83.02 10/28/2025 13:04:06 -80.90, 112.95 83.02 2.93 39
205 10/28/2025 13:54:13 80.90, -79.86 97.03 10/28/2025 13:54:50 80.90, -79.82 97.01 0.77 37
206 10/28/2025 14:44:58 -80.91, 87.28 82.94 10/28/2025 14:45:36 -80.89, 87.35 82.97 2.07 38
207 10/28/2025 15:35:43 80.90,-105.32 97.07 10/28/2025 15:36:20 80.89,-105.42 97.05 2.29 37
208 10/28/2025 16:26:27 -80.89, 62.18 82.95 10/28/2025 16:27:05 -80.90, 62.12 82.96 1.11 38
209 10/28/2025 17:17:13 80.91,-130.77 97.10 10/28/2025 17:17:49 80.89,-130.65 97.06 2.64 36
210 10/28/2025 18:07:57 -80.90, 36.73 82.92 10/28/2025 18:08:34 -80.90, 36.90 82.95 2.95 37
211 10/28/2025 18:58:42 80.89,-155.87 97.08 10/28/2025 18:59:18 80.90,-155.87 97.07 0.59 36
212 10/28/2025 19:49:27 -80.90, 11.28 82.88 10/28/2025 19:50:04 -80.89, 11.30 82.91 0.88 37
213 10/28/2025 20:40:12 80.90, 178.68 97.12 10/28/2025 20:40:48 80.89, 178.53 97.12 2.67 36
214 10/28/2025 21:30:56 -80.89, -13.82 82.90 10/28/2025 21:31:33 -80.90, -13.93 82.90 2.26 37
215 10/28/2025 22:21:42 80.90, 153.22 97.15 10/28/2025 22:22:17 80.90, 153.30 97.13 1.52 35
216 10/28/2025 23:12:26 -80.89, -39.27 82.87 10/28/2025 23:13:02 -80.90, -39.15 82.89 2.42 36
217 10/29/2025 00:03:11 80.89, 128.13 97.14 10/29/2025 00:03:46 80.90, 128.07 97.13 1.69 35
218 10/29/2025 00:53:56 -80.90, -64.72 82.83 10/29/2025 00:54:32 -80.90, -64.75 82.85 0.45 36
219 10/29/2025 01:44:42 80.91, 102.31 97.22 10/29/2025 01:45:16 80.89, 102.48 97.18 3.39 34
220 10/29/2025 02:35:26 -80.90, -90.18 82.80 10/29/2025 02:36:02 -80.89, -90.35 82.80 3.15 36
221 10/29/2025 03:26:11 80.90, 77.22 97.21 10/29/2025 03:26:45 80.90, 77.25 97.19 0.64 34
222 10/29/2025 04:16:56 -80.90,-115.63 82.76 10/29/2025 04:17:31 -80.89,-115.57 82.79 1.49 35
223 10/29/2025 05:07:41 80.90, 51.76 97.24 10/29/2025 05:08:15 80.89, 51.65 97.23 2.14 34
224 10/29/2025 05:58:25 -80.89,-140.73 82.78 10/29/2025 05:59:00 -80.90,-140.80 82.78 1.59 35
225 10/29/2025 06:49:11 80.90, 26.31 97.28 10/29/2025 06:49:44 80.90, 26.43 97.24 2.28 33
226 10/29/2025 07:39:55 -80.89,-166.18 82.75 10/29/2025 07:40:29 -80.90,-166.03 82.77 2.84 34
227 10/29/2025 08:30:40 80.89, 1.21 97.26 10/29/2025 08:31:13 80.90, 1.20 97.25 1.11 33
228 10/29/2025 09:21:25 -80.90, 168.37 82.71 10/29/2025 09:21:59 -80.90, 168.37 82.73 0.29 34
229 10/29/2025 10:12:10 80.89, -24.24 97.29 10/29/2025 10:12:43 80.89, -24.40 97.29 2.74 33
230 10/29/2025 11:02:55 -80.90, 142.91 82.68 10/29/2025 11:03:29 -80.89, 142.78 82.69 2.74 34
231 10/29/2025 11:53:40 80.90, -49.70 97.33 10/29/2025 11:54:12 80.90, -49.63 97.30 1.27 32
232 10/29/2025 12:44:25 -80.91, 117.46 82.64 10/29/2025 12:44:58 -80.89, 117.55 82.68 2.14 33
233 10/29/2025 13:35:10 80.90, -75.15 97.36 10/29/2025 13:35:42 80.89, -75.22 97.35 1.78 32
234 10/29/2025 14:25:54 -80.89, 92.36 82.66 10/29/2025 14:26:27 -80.90, 92.32 82.67 0.92 33
235 10/29/2025 15:16:40 80.91,-100.61 97.40 10/29/2025 15:17:11 80.89,-100.45 97.36 3.04 31
236 10/29/2025 16:07:24 -80.90, 66.91 82.63 10/29/2025 16:07:57 -80.89, 66.73 82.62 3.25 33
237 10/29/2025 16:58:09 80.89,-125.71 97.38 10/29/2025 16:58:40 80.90,-125.68 97.37 0.87 31
238 10/29/2025 17:48:54 -80.90, 41.45 82.59 10/29/2025 17:49:26 -80.89, 41.50 82.62 0.94 32
239 10/29/2025 18:39:39 80.90,-151.16 97.41 10/29/2025 18:40:10 80.89,-151.28 97.41 2.11 31
240 10/29/2025 19:30:23 -80.89, 16.36 82.61 10/29/2025 19:30:55 -80.90, 16.27 82.61 2.12 32
241 10/29/2025 20:21:09 80.90,-176.62 97.45 10/29/2025 20:21:39 80.90,-176.51 97.42 1.99 30
242 10/29/2025 21:11:54 -80.91, -9.45 82.52 10/29/2025 21:12:25 -80.89, -9.33 82.56 2.81 31
243 10/29/2025 22:02:38 80.89, 158.29 97.43 10/29/2025 22:03:08 80.90, 158.27 97.43 1.61 30
244 10/29/2025 22:53:23 -80.89, -34.55 82.54 10/29/2025 22:53:54 -80.90, -34.55 82.55 0.31 31
245 10/29/2025 23:44:08 80.89, 132.83 97.47 10/29/2025 23:44:38 80.89, 132.67 97.47 2.90 30
246 10/30/2025 00:34:53 -80.90, -60.00 82.51 10/30/2025 00:35:24 -80.89, -60.15 82.51 2.75 31
247 10/30/2025 01:25:38 80.89, 107.38 97.50 10/30/2025 01:26:07 80.90, 107.44 97.48 1.19 29
248 10/30/2025 02:16:23 -80.90, -85.46 82.47 10/30/2025 02:16:53 -80.89, -85.38 82.50 1.62 30
249 10/30/2025 03:07:08 80.90, 81.92 97.54 10/30/2025 03:07:37 80.89, 81.84 97.53 1.60 29
250 10/30/2025 03:57:52 -80.89,-110.55 82.49 10/30/2025 03:58:22 -80.90,-110.61 82.49 1.47 30
251 10/30/2025 04:48:38 80.90, 56.47 97.57 10/30/2025 04:49:06 80.90, 56.62 97.54 2.74 28
252 10/30/2025 05:39:22 -80.89,-136.01 82.45 10/30/2025 05:39:51 -80.90,-135.84 82.48 3.24 29
253 10/30/2025 06:30:07 80.89, 31.37 97.55 10/30/2025 06:30:35 80.90, 31.39 97.54 1.24 28
254 10/30/2025 07:20:52 -80.90,-161.46 82.42 10/30/2025 07:21:21 -80.90,-161.43 82.44 0.51 29
255 10/30/2025 08:11:37 80.89, 5.91 97.59 10/30/2025 08:12:05 80.89, 5.79 97.59 2.20 28
256 10/30/2025 09:02:22 -80.90, 173.08 82.39 10/30/2025 09:02:51 -80.89, 172.97 82.39 2.35 29
257 10/30/2025 09:53:07 80.90, -19.54 97.62 10/30/2025 09:53:34 80.90, -19.44 97.60 1.80 27
258 10/30/2025 10:43:52 -80.90, 147.63 82.35 10/30/2025 10:44:20 -80.89, 147.74 82.38 2.31 28
259 10/30/2025 11:34:37 80.90, -45.00 97.66 10/30/2025 11:35:04 80.89, -45.04 97.64 1.38 27
260 10/30/2025 12:25:21 -80.89, 122.53 82.37 10/30/2025 12:25:49 -80.90, 122.51 82.38 0.87 28
261 10/30/2025 13:16:06 80.89, -70.09 97.64 10/30/2025 13:16:33 80.89, -70.27 97.65 3.13 27
262 10/30/2025 14:06:51 -80.89, 97.08 82.33 10/30/2025 14:07:19 -80.89, 96.92 82.33 2.89 28
263 10/30/2025 14:57:35 80.89, -95.55 97.67 10/30/2025 14:58:01 80.90, -95.49 97.66 1.28 26
264 10/30/2025 15:48:20 -80.90, 71.62 82.30 10/30/2025 15:48:47 -80.90, 71.69 82.32 1.17 27
265 10/30/2025 16:39:05 80.90,-121.01 97.71 10/30/2025 16:39:31 80.89,-121.09 97.70 1.57 26
266 10/30/2025 17:29:49 -80.88, 46.53 82.32 10/30/2025 17:30:16 -80.90, 46.46 82.31 2.02 27
267 10/30/2025 18:20:35 80.90,-146.46 97.74 10/30/2025 18:21:00 80.90,-146.32 97.71 2.50 25
268 10/30/2025 19:11:20 -80.91, 20.71 82.23 10/30/2025 19:11:46 -80.89, 20.86 82.27 3.00 26
269 10/30/2025 20:02:05 80.90,-171.92 97.78 10/30/2025 20:02:30 80.89,-171.92 97.76 1.57 25
270 10/30/2025 20:52:49 -80.89, -4.38 82.25 10/30/2025 20:53:15 -80.90, -4.37 82.26 0.51 26
271 10/30/2025 21:43:34 80.89, 162.99 97.76 10/30/2025 21:43:59 80.89, 162.85 97.77 2.39 25
272 10/30/2025 22:34:19 -80.90, -29.84 82.21 10/30/2025 22:34:45 -80.89, -29.97 82.22 2.39 26
273 10/30/2025 23:25:04 80.89, 137.53 97.79 10/30/2025 23:25:28 80.90, 137.62 97.77 1.71 24
274 10/31/2025 00:15:49 -80.90, -55.29 82.18 10/31/2025 00:16:14 -80.89, -55.19 82.21 1.85 25
275 10/31/2025 01:06:34 80.90, 112.07 97.83 10/31/2025 01:06:58 80.89, 112.03 97.82 1.15 24
276 10/31/2025 01:57:18 -80.89, -80.39 82.20 10/31/2025 01:57:43 -80.90, -80.42 82.20 1.41 25
277 10/31/2025 02:48:04 80.90, 86.62 97.86 10/31/2025 02:48:27 80.90, 86.80 97.83 3.23 23
278 10/31/2025 03:38:48 -80.89,-105.84 82.16 10/31/2025 03:39:13 -80.89,-106.02 82.16 3.14 25
279 10/31/2025 04:29:33 80.89, 61.52 97.85 10/31/2025 04:29:56 80.90, 61.57 97.84 1.50 23
280 10/31/2025 05:20:18 -80.89,-131.30 82.13 10/31/2025 05:20:42 -80.90,-131.25 82.15 0.84 24
281 10/31/2025 06:11:03 80.89, 36.07 97.88 10/31/2025 06:11:26 80.89, 35.97 97.88 1.68 23
282 10/31/2025 07:01:48 -80.90,-156.75 82.10 10/31/2025 07:02:12 -80.89,-156.85 82.10 2.01 24
283 10/31/2025 07:52:33 80.90, 10.61 97.91 10/31/2025 07:52:55 80.90, 10.74 97.89 2.32 22
284 10/31/2025 08:43:18 -80.90, 177.79 82.06 10/31/2025 08:43:41 -80.89, 177.92 82.09 2.53 23
285 10/31/2025 09:34:03 80.90, -14.85 97.95 10/31/2025 09:34:25 80.89, -14.86 97.93 1.17 22
286 10/31/2025 10:24:47 -80.89, 152.70 82.08 10/31/2025 10:25:10 -80.90, 152.69 82.08 0.90 23
287 10/31/2025 11:15:32 80.89, -39.94 97.93 10/31/2025 11:15:54 80.89, -40.09 97.94 2.64 22
288 10/31/2025 12:06:17 -80.89, 127.24 82.04 10/31/2025 12:06:40 -80.89, 127.10 82.04 2.57 23
289 10/31/2025 12:57:02 80.89, -65.40 97.97 10/31/2025 12:57:23 80.90, -65.32 97.95 1.72 21
290 10/31/2025 13:47:47 -80.90, 101.79 82.01 10/31/2025 13:48:09 -80.89, 101.87 82.03 1.45 22
291 10/31/2025 14:38:32 80.90, -90.86 98.00 10/31/2025 14:38:53 80.89, -90.91 97.99 1.07 21
292 10/31/2025 15:29:17 -80.90, 76.33 81.98 10/31/2025 15:29:39 -80.89, 76.27 81.99 1.84 22
293 10/31/2025 16:20:02 80.90,-116.31 98.03 10/31/2025 16:20:22 80.90,-116.14 98.00 3.01 20
294 10/31/2025 17:10:47 -80.91, 50.88 81.94 10/31/2025 17:11:08 -80.89, 51.04 81.98 3.22 21
295 10/31/2025 18:01:32 80.90,-141.77 98.07 10/31/2025 18:01:52 80.89,-141.74 98.05 1.64 20
296 10/31/2025 18:52:16 -80.89, 25.78 81.96 10/31/2025 18:52:37 -80.90, 25.81 81.97 0.76 21
297 10/31/2025 19:43:01 80.89,-166.87 98.05 10/31/2025 19:43:21 80.89,-166.97 98.06 1.89 20
298 10/31/2025 20:33:46 -80.90, 0.32 81.93 10/31/2025 20:34:07 -80.89, 0.21 81.93 2.08 21
299 10/31/2025 21:24:31 80.89, 167.68 98.09 10/31/2025 21:24:50 80.90, 167.80 98.07 2.21 19
300 10/31/2025 22:15:16 -80.90, -25.13 81.89 10/31/2025 22:15:36 -80.89, -25.02 81.92 2.11 20
301 10/31/2025 23:06:01 80.90, 142.22 98.12 10/31/2025 23:06:20 80.89, 142.20 98.11 0.85 19
302 10/31/2025 23:56:45 -80.89, -50.23 81.91 10/31/2025 23:57:05 -80.90, -50.25 81.91 1.37 20
303 11/01/2025 00:47:30 80.88, 117.12 98.10 11/01/2025 00:47:49 80.90, 116.97 98.12 2.93 19
304 11/01/2025 01:38:15 -80.89, -75.68 81.87 11/01/2025 01:38:35 -80.89, -75.85 81.87 2.84 20
305 11/01/2025 02:29:00 80.89, 91.67 98.14 11/01/2025 02:29:18 80.90, 91.74 98.13 1.82 18
306 11/01/2025 03:19:45 -80.89,-101.14 81.84 11/01/2025 03:20:04 -80.90,-101.08 81.86 1.14 19



Historial Predications of SNOs between NOAA-21 and FY3D
